EW4524 Weather Reports


time (UTC)temp
C
wind
direction
speed
KPH
gust
KPH
rain 1hr
cm
rain 24hr
cm
rain mn
cm
humidity
%
barometer
mb
20260506044513 10 327 1.6 8.0 0.00 3.05 0.00 93 1010.1
20260506043013 10 355 3.2 6.4 0.00 3.05 0.00 93 1010.0
20260506041512 10 355 0.0 4.8 0.00 3.05 0.00 93 1010.0
20260506040011 10 351 0.0 4.8 0.00 3.05 0.00 93 1010.1
20260506034511 10 287 0.0 0.0 0.00 3.43 0.00 93 1010.2
20260506033015 10 284 0.0 0.0 0.00 3.43 0.00 92 1010.2
20260506031518 10 284 0.0 8.0 0.00 3.43 0.00 93 1010.1
20260506030008 10 13 0.0 4.8 0.00 3.43 0.00 93 1010.2
20260506024509 10 355 0.0 1.6 0.00 3.99 0.00 93 1010.2
20260506023008 10 355 1.6 8.0 0.00 3.99 0.00 93 1010.2
20260506021506 10 339 0.0 6.4 0.00 3.99 0.00 93 1010.3
20260506020007 10 277 0.0 4.8 0.00 3.99 0.00 93 1010.3
20260506014504 10 338 3.2 8.0 0.00 4.22 0.00 93 1010.3
20260506013003 10 328 0.0 8.0 0.00 4.22 0.00 93 1010.3
20260506011507 10 355 0.0 4.8 0.00 4.22 0.00 92 1010.4
20260506010001 10 333 0.0 6.4 0.00 4.22 0.00 92 1010.4
20260506004602 10 323 3.2 8.0 0.00 4.34 0.00 92 1010.5
20260506003123 10 326 3.2 8.0 0.00 4.34 0.00 92 1010.6
20260506001603 10 336 1.6 8.0 0.00 4.34 0.00 92 1010.7
20260506000057 10 340 1.6 9.7 0.00 4.34 0.00 92 1010.8
20260505234556 10 327 4.8 11.3 0.00 4.39 0.00 92 1010.8
20260505233106 10 341 1.6 8.0 0.00 4.39 0.00 92 1010.9
20260505231554 10 340 3.2 9.7 0.00 4.39 0.00 92 1011.0
20260505230057 10 331 1.6 8.0 0.00 4.39 0.00 91 1011.0
20260505224552 10 319 3.2 9.7 0.00 4.50 0.00 90 1011.0
20260505223050 10 340 3.2 6.4 0.00 4.50 0.00 89 1011.0
20260505221549 10 346 3.2 6.4 0.00 4.50 0.00 89 1011.1
20260505220046 10 340 3.2 8.0 0.00 4.50 0.00 89 1011.0
20260505214550 10 18 1.6 8.0 0.00 4.57 4.50 89 1011.0
20260505213047 11 360 3.2 8.0 0.00 4.57 4.50 89 1011.1
20260505211547 11 331 1.6 9.7 0.00 4.57 4.50 89 1011.1
20260505210046 11 18 3.2 9.7 0.00 4.57 4.50 89 1011.1
20260505204544 11 28 1.6 9.7 0.00 4.70 4.50 89 1011.1
20260505203043 11 325 1.6 8.0 0.00 4.70 4.50 90 1011.0
20260505201551 11 294 3.2 11.3 0.00 4.70 4.50 90 1010.8
20260505200043 11 11 1.6 12.9 0.00 4.70 4.50 90 1010.8
20260505194542 11 66 4.8 12.9 0.00 4.72 4.50 90 1010.7
20260505193042 11 40 4.8 14.5 0.03 4.72 4.50 90 1010.5
20260505191546 11 42 1.6 12.9 0.15 4.72 4.50 90 1010.4
20260505190041 11 43 4.8 11.3 0.15 4.72 4.50 91 1010.3
20260505184543 11 18 3.2 6.4 0.15 4.72 4.50 91 1010.3
20260505183106 11 63 3.2 12.9 0.15 4.70 4.47 91 1010.2
20260505181540 11 74 1.6 6.4 0.03 4.57 4.37 91 1010.2
20260505180042 11 49 0.0 6.4 0.00 4.57 4.34 90 1010.0
20260505174538 11 32 0.0 6.4 0.03 4.57 4.34 90 1010.0
20260505173047 11 340 0.0 4.8 0.03 4.57 4.34 90 1010.0
20260505171545 11 335 0.0 6.4 0.05 4.57 4.34 90 1010.1
20260505170038 11 331 0.0 4.8 0.05 4.57 4.34 91 1010.1
20260505164536 11 13 0.0 9.7 0.05 4.55 4.32 90 1010.1
20260505163036 11 35 1.6 8.0 0.08 4.55 4.32 90 1010.1
20260505161535 11 28 0.0 8.0 0.05 4.52 4.29 90 1010.1
20260505153034 11 34 4.8 11.3 0.08 4.47 4.24 90 1010.1
20260505151536 11 57 3.2 16.1 0.13 4.47 4.24 90 1010.1
20260505124526 11 63 4.8 19.3 0.23 4.19 3.99 91 1009.9
20260505123024 10 66 3.2 12.9 0.23 4.17 3.94 91 1010.0
20260505121528 10 22 3.2 11.3 0.20 4.06 3.84 91 1010.0
20260505120051 10 73 4.8 19.3 0.20 3.99 3.78 91 1010.0
20260505114523 10 42 6.4 17.7 0.20 3.96 3.73 91 1010.1
20260505113024 11 19 8.0 16.1 0.23 3.91 3.71 91 1010.1
20260505111520 11 24 4.8 16.1 0.20 3.86 3.63 91 1010.1
20260505101522 11 56 6.4 17.7 0.08 3.66 3.43 91 1010.0
20260505100022 11 13 3.2 16.1 0.13 3.63 3.43 91 1010.0
20260505094515 11 47 4.8 12.9 0.15 3.63 3.40 92 1009.9
20260505093015 11 41 8.0 17.7 0.15 3.61 3.38 92 1009.8
20260505091523 11 18 4.8 16.1 0.20 3.58 3.35 92 1009.8
20260505090026 11 10 6.4 16.1 0.23 3.53 3.30 92 1009.8
20260505084510 11 339 6.4 17.7 0.23 3.48 3.25 92 1009.8
20260505083009 11 42 8.0 19.3 0.30 3.43 3.23 92 1009.9
20260505081511 11 49 3.2 14.5 0.30 3.38 3.15 92 1009.8
20260505080006 11 22 6.4 17.7 0.30 3.30 3.07 92 1009.8
20260505074504 11 329 6.4 16.1 0.33 3.25 3.02 92 1009.9
20260505073003 11 10 6.4 12.9 0.36 3.15 2.90 92 1009.9
20260505071504 11 73 4.8 14.5 0.41 3.07 2.84 92 1009.9
20260505070001 11 41 4.8 12.9 0.43 3.00 2.77 92 1009.9
20260505064559 11 346 6.4 12.9 0.46 2.90 2.69 92 1009.9
20260505063058 11 19 3.2 14.5 0.46 2.77 2.57 92 1009.9
20260505061559 11 40 6.4 19.3 0.46 2.69 2.46 92 1009.9
20260505060055 11 15 6.4 14.5 0.43 2.59 2.36 92 1009.8
20260505054620 11 355 8.0 12.9 0.43 2.46 2.24 93 1009.8
20260505053103 11 28 3.2 12.9 0.43 2.31 2.11 93 1009.9